Location: Bergheim
(50.9593°N, 6.6400°E)
Time: 18:41:50
(UTC+02:00)

ISS - Visible Passes

Search period start: 26 May 2022 00:00
Search period end: 05 June 2022 00:00
Orbit: 414 x 421 km, 51.6° (Epoch: 26 May)

Date Brightness Start Highest point End Pass type
(mag) Time Alt. Az. Time Alt. Az. Time Alt. Az.
26 May -3.5 22:35:11 10° W 22:38:29 53° SSW 22:41:27 12° SE visible
27 May -1.5 00:12:52 10° WSW 00:14:21 14° SW 00:14:21 14° SW visible
27 May -2.0 23:24:13 10° W 23:26:47 20° SW 23:27:55 17° S visible
28 May -2.5 22:35:52 10° W 22:38:49 29° SSW 22:41:29 11° SSE visible
30 May -1.4 22:36:58 10° WSW 22:38:53 14° SW 22:40:48 10° S visible
